Simultaneous Nadir Overpasses (SNOs) Predictions

Prediction of SNOs between AURA and NPP Satellite Orbit:

Table of predicted SNOs for the next 14.0 days since TLE Epoch: 12/19/2015
Index Date (AURA) Time (AURA) Lat,Lon (AURA) SZA (AURA ) Date (NPP) Time (NPP) Lat,Lon (NPP) SZA (NPP ) Distance(km) Time Diff (sec)
1 12/21/2015 17:29:48 79.00, 171.20 116.01 12/21/2015 17:28:47 79.00, 171.17 116.06 0.61 61
2 12/21/2015 18:19:05 -79.40, -18.64 64.53 12/21/2015 18:19:21 -79.40, -18.57 64.55 1.42 16
3 12/24/2015 09:46:12 79.22, -71.56 115.76 12/24/2015 09:45:34 79.23, -71.43 115.76 2.97 38
4 12/24/2015 10:35:34 -79.42, 97.40 64.52 12/24/2015 10:36:14 -79.42, 97.33 64.54 1.61 40
5 12/27/2015 02:02:39 79.31, 44.86 115.63 12/27/2015 02:02:25 79.31, 44.96 115.62 2.30 14
6 12/27/2015 02:52:01 -79.51,-146.14 64.65 12/27/2015 02:53:05 -79.50,-146.26 64.67 2.55 64
7 12/29/2015 17:29:49 -79.03, -8.62 64.07 12/29/2015 17:28:42 -79.03, -8.62 64.02 0.13 67
8 12/29/2015 18:19:08 79.30, 160.68 115.58 12/29/2015 18:19:19 79.29, 160.56 115.59 2.65 11
9 01/01/2016 09:46:11 -79.25, 108.59 64.48 01/01/2016 09:45:28 -79.25, 108.73 64.47 3.15 43




NCC Satellite Simultaneous Nadir Overpasses (SNOs) Prediction Service
